Location: Unspecified
(38.6830°S, 0.0000°E)
Time: 13:55:21
(UTC+00:00)

Envisat - Pass Details

Date: 31 May 2019
Orbit: 764 x 766 km, 98.1° (Epoch: 25 June)

Event Time Altitude Azimuth Distance (km) Brightness Sun altitude
Exits shadow 18:26:27 17° 49° (NE) 1,899 4.7 -18.9°
Drops below altitude 10° 18:28:00 10° 34° (NE) 2,309 5.3 -19.2°
Sets 18:30:44 0° 20° (NNE) 3,226 6.2 -19.7°
